Tracking 28096 objects as of 29-Sep-2023
HD Live streaming from Space Station
objects crossing your sky now

STARLINK-6315

Track STARLINK-6315 now!
10-day predictions
STARLINK-6315 is classified as:


NORAD ID: 57236
Int'l Code: 2023-094U
Perigee: 559.7 km
Apogee: 560.8 km
Inclination: 43.0 °
Period: 95.7 minutes
Semi major axis: 6931 km
RCS: Unknown
Launch date: July 7, 2023
Source: United States (US)
Launch site: AIR FORCE WESTERN TEST RANGE (AFWTR)
Your satellite tracking list
Your tracking list is empty




NASA's NSSDC Master Catalog

Two Line Element Set (TLE):
1 57236U 23094U   23271.84219272  .00001042  00000-0  87774-4 0  9995
2 57236  43.0016 189.5691 0000763 252.5410 107.5350 15.04482227 12956
Source of the keplerian elements: AFSPC